STARLINK-38129, 100268

Orbit data source: Space-Track

STARLINK-38129, 100268 is a payload satellite owned by SpaceX/Seattle (US) in SSO that was launched on Sat, 08 Aug 2026 UTC launched from the Air Force Western Test Range (AFWTR). Payload-class satellites include a variety of spacecraft equipped with specific instruments for various scientific and technological missions. These include communications satellites like Starlink; space stations such as the ISS; scientific satellites like the Hubble; Earth observation satellites from companies like Planet Labs, Umbra, and HawkEye 360; GPS; miniature CubeSats for education and research; and military/defense satellites.

Loading next visibility...
Identifier
100268, 2026-181Y
Orbit
SSO
Country
Flag of USUS
Related business
Manufacturer
SpaceX/Seattle
Mission
Operational spacecraft
Bus & Motor
STARLINK V2MO, Unknown motor
Mass
575 kg wet, ~530 kg dry
Launch date (UTC)
2026-08-08 (1 month ago)
Launch vehicle
Unknown
Launch site
Air Force Western Test Range (AFWTR)
Object type
Payload
Rocket body
Debris
Shape & HBR
BOX + PAN, 17.7 m
Radar Cross Section
Large (>1 m²)

Expand to show TLE details & history
Last TLE update: 7 hours ago

TLE from 7 hours ago
0 STARLINK-38129
1 A0268U 26181Y   26249.62178958  .00153889  00000-0  10127-2 0  9990
2 A0268  97.2837 292.4992 0001668 124.0010 236.1414 15.75221333  5761
Epoch: 2026-09-06T14:55Z
TLE epoch observation values (Epoch: 2026-09-06T14:55:22.619Z)
Latitude
-0.00003°
Longitude
82.94069°
Altitude
347.795 km
Speed
7.7 km/s
True Right ascension
19h 29m 59s
True Declination
0° 00' 00"
Sunlit
Object was in full shadow at epoch
Visualization orbit readout
Latitude
Unknown
Longitude
Unknown
Altitude
Unknown
Speed
Unknown
Apparent Right ascension
Unknown
Apparent Declination
Unknown
Sunlit
N/A
Visualization observer readout
Local Sidereal Time
13:49:05
Azimuth
Unknown
Elevation
Unknown
Doppler factor
Unknown
Orbital elements
Apogee altitude
342.009 km
Perigee altitude
339.768 km
Semi-major axis
6,719.026 km
Eccentricity
0.00017
Inclination
97.2837°
RAAN
292.4992°
Arg. of periapsis
124.001°
True anomaly
236.12553°
Mean anomaly
236.1414°
Eccentric anomaly
236.13346°
Mean motion
3.94079 °/min
Orbital period
91.35 mins
BSTAR
0.0010127
Loading maneuver chart data...
Computing Atmospheric mass density...
Loading historical data...
Loading historical data...
Loading historical data...
Loading historical data...
Loading historical data...
Loading historical data...
Loading historical data...

Documentation

Showing up to 5 results
|